Weather in Kholodnoye

Russia / Belgorod Oblast     51°00′28″N   37°06′26″E
temp.,
°C
wind,
m/s
gust,
m/s
humid.,
%
clouds,
%
prec.,
mm/h
press.,
hPa
HPBL,
m
14 april, wed
wed1400:00+10ssw348840 0.0 1021111
03:00+9sse248876 0.0 1021129
06:00+8ese119299 0.0 102010
09:00+12e2375100 0.0 1019312
12:00+16ene235949 0.1 10171112
15:00+18se4539100 0.1 10151843
18:00+16s2453100 0.1 1014299
21:00+12sse0167100 0.3 101515
15 april, thu
thu1500:00+11ne2268100 0.0 101422
03:00+10e236798 0.0 101334
06:00+9se337559 0.0 101345
09:00+12s347297 0.0 1014326
12:00+15ssw565895 0.5 10131134
15:00+16s564487 0.6 10132082
18:00+14s465746 0.1 10131140
21:00+11s237886 0.3 101471
16 april, fri
fri1600:00+10se158766 1.0 1013287
03:00+8sse22891 1.0 101420
06:00+7sse34934 0.0 101589
09:00+10sse57743 0.0 1016702
12:00+13sse695550 0.0 10161582
15:00+13s685092 0.1 10161704
18:00+12ssw455482 0.0 1017991
21:00+10wnw1167100 0.0 101835
17 april, sat
sat1700:00+8nne1173100 0.0 101912
03:00+8nne2273100 0.0 101920
06:00+7wsw2388100 1.6 1018122
09:00+7wsw4693100 6.2 1018497
12:00+6sw71092100 9.4 1018564
15:00+7sw4689100 14.4 1019543
18:00+7s3691100 0.0 1019445
21:00+7sse5893100 1.1 1020631
18 april, sun
sun1800:00+4se35965 0.1 1022131
03:00+4ese22956 0.1 102239
06:00+4ene359712 0.0 102388
09:00+8ene468070 0.0 1023550
12:00+11e456498 0.6 10231283
15:00+12ene3460100 1.1 10231102
18:00+11ne5773100 0.2 1023534
21:00+8ene51085100 0.3 1025422